カタログに戻る

STARLINK-31952

運用中通信VLEO
NORAD 59867·PAYLOAD·🇺🇸 United States

打ち上げ May 24, 2024 から Cape Canaveral Space Force Station

Loading…

次のパス (今後24時間)

TLE

最新Source: CelesTrak SupGP

元期: Sep 14, 2026, 13:35 UTC

1 59867C 24098K   26257.56645833  .00057046  00000+0  20666-2 0  2570
2 59867  43.0004 291.4651 0001274 275.5183 340.4352 15.27543871    16

AllMySatでSTARLINK-31952をリアルタイム追跡

Download on the App Store